Location: Pinawa
(50.1500°N, 95.8830°W)
Time: 09:34:17
(UTC-05:00)

Amateur Radio Satellites - All Passes

Search period start: 22 May 2015 09:04
Search period end: 23 May 2015 09:04
Location: Pinawa, 50.1500°N, 95.8830°W

Satellite Date Start Highest point End Downlink Frequencies (MHz)
Time Altitude Azimuth
CUTE-I 22 May 09:07:20 09:12:06 33° 297° (WNW) 09:16:49 437.470
COMPASS 1 22 May 09:08:39 09:09:36 11° 84° (E) 09:10:47 437.405
TIGRISAT 22 May 09:20:20 09:22:23 13° 56° (NE) 09:24:35 435.000
AAUSAT CUBESAT 2 22 May 09:24:31 09:26:37 14° 87° (E) 09:28:53 437.432
Cubesat XI-IV 22 May 09:26:35 09:30:53 25° 301° (WNW) 09:35:06 437.490
Cosmos 2504 22 May 09:29:20 09:33:21 15° 75° (ENE) 09:37:39 435.465 / 435.565
Cosmos 2491 22 May 09:33:52 09:41:15 30° 279° (W) 09:48:21 435.465 / 435.565
UNISAT 6 22 May 09:37:07 09:40:13 18° 59° (ENE) 09:43:25 437.425
CANX-2 22 May 09:44:28 09:48:26 39° 97° (E) 09:52:24 2200.000
QB50P2 22 May 09:48:07 09:49:09 11° 55° (NE) 09:50:22 145.880/145.840
CUTE 1.7 + AOD 2 22 May 09:48:51 09:52:51 39° 97° (E) 09:56:49 437.475
BRITE-PL 22 May 09:54:25 10:00:10 82° 287° (WNW) 10:05:48 437.365/2234.400
SO-50 22 May 09:56:23 09:59:16 15° 2° (N) 10:02:10 436.795
POPSAT HIP 1 22 May 10:00:35 10:02:42 14° 57° (ENE) 10:04:57 437.405
PHONESAT 2.4 22 May 10:01:29 10:02:59 12° 196° (SSW) 10:04:28 2401.200-2431.200
AIST 1 22 May 10:02:52 10:06:27 25° 271° (W) 10:09:58
DUCHIFAT 1 22 May 10:06:40 10:09:04 15° 59° (ENE) 10:11:36 145.980
AO-7 22 May 10:07:45 10:09:03 10° 341° (NNW) 10:10:08 29.400- 29.500
FUNcube-1 22 May 10:10:56 10:12:43 12° 84° (E) 10:14:40 145.935
DOVE 4 22 May 10:13:38 10:18:57 73° 101° (ESE) 10:24:02 437.250
ANTELSAT 22 May 10:18:45 10:23:06 38° 67° (ENE) 10:27:27 437.575/2403.000
SEEDS 22 May 10:19:53 10:24:05 68° 102° (ESE) 10:28:14 437.485
CUBEBUG 2 22 May 10:22:34 10:26:21 25° 91° (E) 10:30:04 437.445
GOMX 1 22 May 10:24:37 10:30:07 68° 288° (WNW) 10:35:25 467.674
DELFI C3 22 May 10:27:01 10:30:04 21° 91° (E) 10:33:11 145.870
CINEMA 3 22 May 10:31:14 10:36:06 56° 99° (E) 10:40:43 145.822/145.860
RS-15 22 May 10:32:46 10:43:09 55° 117° (ESE) 10:53:56 29.354- 29.394
YUBILEINY 22 May 10:32:57 10:41:04 39° 296° (WNW) 10:49:03 435.215
PCSat 22 May 10:33:00 10:38:10 42° 43° (NE) 10:43:20 145.827
HO-68 22 May 10:38:19 10:45:32 89° 107° (ESE) 10:52:43 435.675
COMPASS 1 22 May 10:41:49 10:46:01 88° 274° (W) 10:50:09 437.405
POLYITAN 1 22 May 10:42:13 10:45:59 31° 66° (ENE) 10:49:51 437.675
QB50P1 22 May 10:43:16 10:47:01 31° 66° (ENE) 10:50:51 145.935-145.965
ZACube-1 22 May 10:47:41 10:51:30 28° 93° (E) 10:55:17 437.345
BUGSAT 1 22 May 10:52:41 10:56:09 27° 64° (ENE) 10:59:44 437.445
TIGRISAT 22 May 10:53:44 10:58:25 75° 74° (ENE) 11:03:06 435.000
AAUSAT CUBESAT 2 22 May 10:58:38 11:02:47 69° 286° (WNW) 11:06:53 437.432
UKube-1 22 May 11:01:15 11:04:16 18° 90° (E) 11:07:23 .
DX 1 22 May 11:01:54 11:05:09 20° 91° (E) 11:08:28 434.975-435.025
UNISAT 6 22 May 11:11:48 11:16:31 74° 257° (WSW) 11:21:14 437.425
Oscar 11 22 May 11:12:16 11:16:36 79° 103° (ESE) 11:20:55 145.826/435.025
NANOSAT C BR1 22 May 11:16:05 11:20:18 62° 72° (ENE) 11:24:35 145.865
Cosmos 2504 22 May 11:17:12 11:25:30 67° 95° (E) 11:33:16 435.465 / 435.565
QB50P2 22 May 11:20:03 11:24:19 70° 73° (ENE) 11:28:38 145.880/145.840
CANX-2 22 May 11:20:42 11:24:14 25° 295° (WNW) 11:27:40 2200.000
UWE-3 22 May 11:20:51 11:25:23 72° 102° (ESE) 11:29:45 435.000/436.395/437.385
AISAT 22 May 11:24:55 11:28:06 19° 90° (E) 11:31:24 437.250
CUTE 1.7 + AOD 2 22 May 11:25:06 11:28:37 25° 295° (WNW) 11:32:03 437.475
HUMSAT D 22 May 11:25:20 11:29:07 31° 95° (E) 11:32:52 437.325/437.525
POPSAT HIP 1 22 May 11:33:41 11:37:59 89° 255° (WSW) 11:42:20 437.405
BRITE-PL 22 May 11:34:06 11:37:55 18° 304° (NW) 11:41:32 437.365/2234.400
SO-50 22 May 11:37:24 11:41:28 24° 26° (NNE) 11:45:32 436.795
DUCHIFAT 1 22 May 11:40:05 11:44:21 79° 256° (WSW) 11:48:41 145.980
FUNcube-1 22 May 11:45:19 11:49:47 84° 285° (WNW) 11:54:05 145.935
DOVE 4 22 May 11:52:12 11:56:10 21° 301° (WNW) 11:59:56 437.250
ANTELSAT 22 May 11:55:46 11:59:58 31° 266° (W) 12:04:05 437.575/2403.000
SEEDS 22 May 11:56:47 11:59:27 16° 300° (WNW) 12:01:58 437.485
CUBEBUG 2 22 May 11:58:52 12:03:16 43° 291° (WNW) 12:07:28 437.445
50 SAT 22 May 12:00:02 12:03:45 40° 98° (E) 12:07:27 437.505
DELFI C3 22 May 12:01:34 12:05:24 42° 290° (WNW) 12:09:11 145.870
GOMX 1 22 May 12:04:20 12:07:19 15° 307° (NW) 12:10:05 467.674
CINEMA 3 22 May 12:09:01 12:12:56 24° 299° (WNW) 12:16:40 145.822/145.860
ESTCUBE 1 22 May 12:13:07 12:17:11 32° 95° (E) 12:21:17 437.505/2401.250
PCSat 22 May 12:16:31 12:21:39 43° 244° (WSW) 12:26:44 145.827
POLYITAN 1 22 May 12:17:57 12:21:52 33° 264° (W) 12:25:48 437.675
QB50P1 22 May 12:18:59 12:22:52 32° 265° (W) 12:26:45 145.935-145.965
COMPASS 1 22 May 12:19:16 12:21:05 12° 302° (WNW) 12:22:46 437.405
Oscar 19 22 May 12:19:33 12:23:00 19° 56° (ENE) 12:26:35 437.125/150
ZACube-1 22 May 12:23:51 12:27:58 37° 293° (WNW) 12:31:56 437.345
HO-68 22 May 12:26:52 12:32:33 25° 309° (NW) 12:38:03 435.675
BUGSAT 1 22 May 12:27:39 12:31:30 36° 263° (W) 12:35:25 437.445
VELOX 1 22 May 12:30:52 12:35:22 75° 103° (ESE) 12:39:51 145.980
TIGRISAT 22 May 12:32:49 12:35:45 16° 273° (W) 12:38:32 435.000
UKube-1 22 May 12:36:30 12:40:48 56° 290° (WNW) 12:45:04 .
DX 1 22 May 12:37:25 12:41:43 52° 290° (WNW) 12:46:00 434.975-435.025
YUBILEINY 22 May 12:39:17 12:41:22 11° 325° (NW) 12:43:00 435.215
CUBEBUG 1 22 May 12:44:21 12:48:44 56° 100° (E) 12:53:06 437.445
RS-15 22 May 12:44:42 12:55:34 62° 323° (NW) 13:06:51 29.354- 29.394
CUSAT 1 22 May 12:45:00 12:49:32 18° 76° (ENE) 12:54:45 437.405
Oscar 11 22 May 12:49:44 12:52:16 15° 301° (WNW) 12:54:40 145.826/435.025
TISAT 1 22 May 12:52:32 12:55:16 17° 89° (E) 12:58:07 437.305
UNISAT 6 22 May 12:53:17 12:54:13 10° 277° (W) 12:54:51 437.425
NANOSAT C BR1 22 May 12:53:49 12:56:36 16° 272° (W) 12:59:17 145.865
QB50P2 22 May 12:58:15 13:00:45 15° 273° (W) 13:03:07 145.880/145.840
UWE-3 22 May 12:58:25 13:01:25 17° 301° (WNW) 13:04:13 435.000/436.395/437.385
AISAT 22 May 13:00:39 13:05:06 57° 289° (WNW) 13:09:30 437.250
HUMSAT D 22 May 13:01:06 13:04:51 31° 294° (WNW) 13:08:30 437.325/437.525
GONETS M04 22 May 13:05:18 13:11:55 26° 79° (ENE) 13:18:49
Cosmos 2504 22 May 13:12:07 13:19:31 33° 296° (WNW) 13:26:23 435.465 / 435.565
POPSAT HIP 1 22 May 13:13:15 13:14:37 11° 276° (W) 13:15:46 437.405
SO-50 22 May 13:17:44 13:22:45 81° 50° (NE) 13:27:41 436.795
DANDE 22 May 13:19:36 13:24:57 24° 80° (E) 13:31:15 436.750
FUNcube-1 22 May 13:23:19 13:25:26 13° 304° (NW) 13:27:21 145.935
50 SAT 22 May 13:35:12 13:38:16 22° 296° (WNW) 13:41:15 437.505
AO-7 22 May 13:42:00 13:47:15 19° 38° (NE) 13:52:45 29.400- 29.500
SPROUT 22 May 13:43:27 13:47:49 68° 102° (ESE) 13:52:08 437.525
ESTCUBE 1 22 May 13:49:59 13:54:04 34° 294° (WNW) 13:58:08 437.505/2401.250
JAS-2 22 May 13:53:52 13:55:45 12° 49° (NE) 13:57:50 435.910
Oscar 19 22 May 13:56:34 14:01:47 85° 253° (WSW) 14:07:03 437.125/150
ITAMSAT 1 22 May 13:59:39 14:04:23 38° 65° (ENE) 14:09:11 435.822/435.867
Gurwin Techsat 1B 22 May 14:06:59 14:11:54 41° 66° (ENE) 14:16:54 435.225
VELOX 1 22 May 14:08:30 14:11:27 17° 301° (WNW) 14:14:15 145.980
Cosmos 2499 22 May 14:16:02 14:17:28 11° 72° (ENE) 14:19:26 435.465 / 435.565
CUBEBUG 1 22 May 14:21:24 14:24:46 21° 298° (WNW) 14:28:02 437.445
CUSAT 1 22 May 14:23:43 14:30:50 72° 97° (E) 14:39:07 437.405
HORYU 2 22 May 14:25:50 14:27:41 13° 55° (NE) 14:29:42 437.375
TISAT 1 22 May 14:27:14 14:31:29 61° 288° (WNW) 14:35:42 437.305
ITUPSAT 1 22 May 14:27:39 14:31:40 27° 93° (E) 14:35:44 437.325
BEESAT 22 May 14:38:32 14:42:52 33° 95° (E) 14:47:12 436.000
SWISSCUBE 22 May 14:46:05 14:50:37 42° 98° (E) 14:55:09 437.505
GONETS M04 22 May 14:58:56 15:07:48 85° 279° (W) 15:16:45
SO-50 22 May 14:59:13 15:02:47 19° 247° (WSW) 15:06:12 436.795
DANDE 22 May 15:00:10 15:07:07 87° 282° (WNW) 15:15:36 436.750
RS-15 22 May 15:00:19 15:10:34 39° 355° (N) 15:21:15 29.354- 29.394
SPROUT 22 May 15:20:32 15:23:27 17° 300° (WNW) 15:26:15 437.525
AO-7 22 May 15:30:29 15:38:29 57° 61° (ENE) 15:46:37 29.400- 29.500
JAS-2 22 May 15:33:23 15:39:49 50° 68° (ENE) 15:45:34 435.910
ITAMSAT 1 22 May 15:39:11 15:43:56 36° 264° (W) 15:48:42 435.822/435.867
Oscar 19 22 May 15:39:19 15:42:03 14° 276° (W) 15:44:32 437.125/150
STARS 22 May 15:46:01 15:49:17 20° 90° (E) 15:52:39 437.465
Gurwin Techsat 1B 22 May 15:47:08 15:52:00 35° 265° (W) 15:56:50 435.225
HORYU 2 22 May 15:59:09 16:03:39 77° 73° (ENE) 16:08:09 437.375
Cosmos 2499 22 May 16:01:18 16:09:09 54° 92° (E) 16:16:30 435.465 / 435.565
KKS-1 22 May 16:04:58 16:09:18 45° 99° (E) 16:13:37 437.445
ITUPSAT 1 22 May 16:05:12 16:09:46 45° 292° (WNW) 16:14:18 437.325
CUSAT 1 22 May 16:07:40 16:14:22 34° 301° (WNW) 16:21:41 437.405
BEESAT 22 May 16:16:23 16:20:45 36° 294° (WNW) 16:25:04 436.000
SWISSCUBE 22 May 16:24:12 16:28:21 30° 297° (WNW) 16:32:26 437.505
O/OREOS (USA 219) 22 May 16:40:13 16:43:28 20° 103° (ESE) 16:46:50 437.305
YUBILEINY 22 May 16:45:19 16:47:09 11° 35° (NE) 16:49:26 435.215
DANDE 22 May 16:45:39 16:51:47 26° 308° (NW) 16:58:29 436.750
MOZHAYETS 4 22 May 16:58:18 17:01:11 17° 87° (E) 17:04:11
GONETS M04 22 May 16:59:10 17:06:15 25° 306° (NW) 17:13:05
RS-15 22 May 17:15:05 17:26:04 51° 28° (NNE) 17:37:35 29.354- 29.394
CUTE-I 22 May 17:15:31 17:19:22 21° 57° (ENE) 17:23:21 437.470
JAS-2 22 May 17:18:53 17:25:06 36° 265° (W) 17:30:38 435.910
STARS 22 May 17:21:44 17:26:06 53° 289° (WNW) 17:30:24 437.465
AO-7 22 May 17:23:51 17:31:39 42° 263° (W) 17:39:25 29.400- 29.500
Cubesat XI-IV 22 May 17:33:48 17:38:15 29° 61° (ENE) 17:42:48 437.490
HORYU 2 22 May 17:38:23 17:40:54 14° 273° (W) 17:43:16 437.375
KKS-1 22 May 17:42:01 17:45:44 25° 297° (WNW) 17:49:22 437.445
Cosmos 2499 22 May 17:55:02 18:02:36 40° 293° (WNW) 18:09:35 435.465 / 435.565
CUSAT 1 22 May 17:58:04 18:00:09 11° 327° (NNW) 18:01:51 437.405
O/OREOS (USA 219) 22 May 18:18:05 18:22:33 57° 302° (WNW) 18:27:00 437.305
CUBESAT XI-V 22 May 18:24:04 18:25:34 12° 83° (E) 18:27:18 437.345
MOZHAYETS 4 22 May 18:34:23 18:38:57 67° 287° (WNW) 18:43:28
YUBILEINY 22 May 18:39:24 18:47:25 39° 65° (ENE) 18:55:28 435.215
Cosmos 2491 22 May 18:50:44 18:55:50 18° 73° (ENE) 19:01:23 435.465 / 435.565
CUTE-I 22 May 18:53:40 18:58:58 75° 256° (WSW) 19:04:20 437.470
Cubesat XI-IV 22 May 19:12:56 19:18:08 53° 260° (W) 19:23:22 437.490
STRAND 1 22 May 19:19:29 19:22:52 18° 88° (E) 19:26:24 437.568
HO-68 22 May 19:25:28 19:31:18 28° 53° (NE) 19:37:15 435.675
RS-15 22 May 19:27:59 19:39:30 77° 235° (SW) 19:51:30 29.354- 29.394
BRITE-PL 22 May 19:32:05 19:36:28 30° 63° (ENE) 19:41:13 437.365/2234.400
BEESAT 3 22 May 19:34:09 19:37:16 22° 116° (ESE) 19:40:29 437.485
SEEDS 22 May 19:43:30 19:45:13 12° 57° (ENE) 19:47:04 437.485
DOVE 4 22 May 19:47:20 19:51:04 21° 59° (ENE) 19:55:01 437.250
CUBESAT XI-V 22 May 19:59:08 20:03:51 83° 102° (ESE) 20:08:34 437.345
GOMX 1 22 May 19:59:28 20:04:04 35° 65° (ENE) 20:08:57 467.674
O/OREOS (USA 219) 22 May 20:01:03 20:03:02 12° 324° (NW) 20:04:54 437.305
CINEMA 3 22 May 20:02:26 20:05:17 16° 56° (ENE) 20:08:19 145.822/145.860
COMPASS 1 22 May 20:03:49 20:06:16 16° 60° (ENE) 20:08:50 437.405
MOZHAYETS 4 22 May 20:13:56 20:15:23 11° 306° (NW) 20:16:39
BEESAT 2 22 May 20:15:19 20:19:11 42° 122° (ESE) 20:23:08 435.950
PRISM 22 May 20:16:26 20:20:32 59° 102° (ESE) 20:24:38 437.425
AAUSAT CUBESAT 2 22 May 20:19:40 20:22:33 19° 62° (ENE) 20:25:33 437.432
YUBILEINY 22 May 20:36:14 20:44:45 59° 268° (W) 20:53:10 435.215
Oscar 11 22 May 20:37:26 20:39:59 16° 59° (ENE) 20:42:39 145.826/435.025
CUTE-I 22 May 20:37:55 20:40:07 12° 277° (W) 20:42:01 437.470
CANX-2 22 May 20:41:38 20:45:47 51° 71° (ENE) 20:49:57 2200.000
Cosmos 2491 22 May 20:42:32 20:51:15 73° 95° (E) 21:00:05 435.465 / 435.565
CUTE 1.7 + AOD 2 22 May 20:45:58 20:50:06 51° 71° (ENE) 20:54:16 437.475
UWE-3 22 May 20:47:46 20:50:39 17° 59° (ENE) 20:53:39 435.000/436.395/437.385
M-CUBED/EXP-1 PRIME 22 May 20:51:18 20:54:38 51° 106° (ESE) 20:57:52 437.505
STRAND 1 22 May 20:57:33 21:02:43 75° 288° (WNW) 21:07:51 437.568
AIST 1 22 May 21:00:26 21:03:15 18° 86° (E) 21:06:11
AUBIESAT-1 22 May 21:04:09 21:07:32 63° 108° (ESE) 21:10:48 437.475
Cosmos 2504 22 May 21:04:32 21:10:51 30° 62° (ENE) 21:17:08 435.465 / 435.565
BRITE-PL 22 May 21:09:55 21:14:46 48° 263° (W) 21:20:01 437.365/2234.400
FUNcube-1 22 May 21:10:27 21:13:44 20° 61° (ENE) 21:17:07 145.935
BEESAT 3 22 May 21:10:54 21:14:57 57° 315° (NW) 21:19:02 437.485
HO-68 22 May 21:11:14 21:18:27 80° 253° (WSW) 21:25:42 435.675
AIST 2 22 May 21:11:49 21:15:55 47° 123° (ESE) 21:20:04 435.215
SEEDS 22 May 21:16:09 21:20:24 85° 76° (ENE) 21:24:39 437.485
DELFI C3 22 May 21:18:51 21:22:09 25° 65° (ENE) 21:25:30 145.870
DOVE 4 22 May 21:23:12 21:28:17 74° 258° (WSW) 21:33:37 437.250
CUBEBUG 2 22 May 21:24:42 21:29:06 38° 68° (ENE) 21:33:32 437.445
CINEMA 3 22 May 21:36:47 21:41:46 84° 75° (ENE) 21:46:52 145.822/145.860
GOMX 1 22 May 21:37:17 21:42:06 41° 265° (W) 21:47:12 467.674
COMPASS 1 22 May 21:37:17 21:41:29 72° 258° (WSW) 21:45:41 437.405
CUBESAT XI-V 22 May 21:37:48 21:40:45 16° 302° (WNW) 21:43:33 437.345
RS-15 22 May 21:41:37 21:50:23 25° 258° (WSW) 21:58:52 29.354- 29.394
ZACube-1 22 May 21:47:38 21:51:57 41° 68° (ENE) 21:56:17 437.345
PRISM 22 May 21:52:46 21:55:38 18° 299° (WNW) 21:58:24 437.425
BEESAT 2 22 May 21:53:35 21:57:23 33° 322° (NW) 22:01:11 435.950
AAUSAT CUBESAT 2 22 May 21:53:43 21:57:50 56° 260° (W) 22:01:57 437.432
VELOX 1 22 May 21:58:19 22:01:11 18° 59° (ENE) 22:04:11 145.980
UKube-1 22 May 22:00:18 22:04:00 29° 65° (ENE) 22:07:48 .
DX 1 22 May 22:01:44 22:05:34 32° 65° (ENE) 22:09:29 434.975-435.025
Oscar 11 22 May 22:11:18 22:15:40 76° 257° (WSW) 22:20:01 145.826/435.025
CUBEBUG 1 22 May 22:11:35 22:13:28 13° 56° (NE) 22:15:30 437.445
DANDE 22 May 22:14:03 22:15:02 10° 30° (NNE) 22:16:23 436.750
CANX-2 22 May 22:18:52 22:22:02 19° 270° (W) 22:25:07 2200.000
HUMSAT D 22 May 22:21:14 22:25:19 42° 69° (ENE) 22:29:25 437.325/437.525
UWE-3 22 May 22:21:55 22:26:37 82° 257° (WSW) 22:31:22 435.000/436.395/437.385
CUTE 1.7 + AOD 2 22 May 22:23:12 22:26:21 19° 270° (W) 22:29:25 437.475
AISAT 22 May 22:26:57 22:30:49 31° 65° (ENE) 22:34:47 437.250
M-CUBED/EXP-1 PRIME 22 May 22:27:08 22:29:12 15° 305° (NW) 22:31:07 437.505
YUBILEINY 22 May 22:35:51 22:39:48 13° 290° (WNW) 22:43:13 435.215
AIST 1 22 May 22:36:22 22:40:32 52° 285° (WNW) 22:44:46
STRAND 1 22 May 22:38:20 22:41:09 15° 307° (NW) 22:43:49 437.568
AUBIESAT-1 22 May 22:40:17 22:41:54 13° 307° (NW) 22:43:26 437.475
Cosmos 2491 22 May 22:41:15 22:49:03 33° 300° (WNW) 22:56:45 435.465 / 435.565
TIGRISAT 22 May 22:43:26 22:44:36 11° 83° (E) 22:46:00 435.000
FUNcube-1 22 May 22:45:07 22:49:41 63° 259° (W) 22:54:15 145.935
50 SAT 22 May 22:48:54 22:52:45 46° 70° (ENE) 22:56:37 437.505
AIST 2 22 May 22:50:46 22:54:40 32° 323° (NW) 22:58:33 435.215
BEESAT 3 22 May 22:51:06 22:53:47 16° 337° (NNW) 22:56:26 437.485
DELFI C3 22 May 22:53:23 22:57:08 36° 263° (W) 23:00:54 145.870
SEEDS 22 May 22:55:16 22:56:53 12° 275° (W) 22:58:18 437.485
Cosmos 2504 22 May 22:57:39 23:04:54 63° 266° (W) 23:11:56 435.465 / 435.565
UNISAT 6 22 May 23:00:24 23:03:15 17° 88° (E) 23:06:12 437.425
CUBEBUG 2 22 May 23:01:34 23:05:51 32° 266° (W) 23:10:07 437.445
HO-68 22 May 23:02:42 23:07:28 18° 276° (W) 23:11:57 435.675
DOVE 4 22 May 23:05:03 23:07:07 12° 279° (W) 23:08:55 437.250
GONETS M04 22 May 23:07:41 23:13:10 18° 47° (NE) 23:18:58
SPROUT 22 May 23:08:32 23:10:42 14° 58° (ENE) 23:13:01 437.525
CUSAT 1 22 May 23:15:45 23:21:38 22° 49° (NE) 23:27:07 437.405
POPSAT HIP 1 22 May 23:16:28 23:17:47 11° 85° (E) 23:19:18 437.405
CINEMA 3 22 May 23:16:37 23:19:41 16° 275° (W) 23:22:36 145.822/145.860
ESTCUBE 1 22 May 23:17:05 23:21:26 52° 70° (ENE) 23:25:49 437.505/2401.250
DUCHIFAT 1 22 May 23:21:57 23:23:46 13° 86° (E) 23:25:47 145.980
ZACube-1 22 May 23:24:27 23:28:26 28° 267° (W) 23:32:23 437.345
VELOX 1 22 May 23:32:52 23:37:17 71° 257° (WSW) 23:41:45 145.980
BEESAT 2 22 May 23:34:38 23:36:39 13° 345° (NNW) 23:38:37 435.950
UKube-1 22 May 23:36:03 23:40:04 36° 263° (W) 23:44:06 .
DX 1 22 May 23:37:51 23:41:48 33° 264° (W) 23:45:46 434.975-435.025
ANTELSAT 22 May 23:42:42 23:46:56 41° 97° (E) 23:51:05 437.575/2403.000
CUBEBUG 1 22 May 23:44:49 23:49:10 83° 75° (ENE) 23:53:35 437.445
TISAT 1 22 May 23:48:59 23:52:21 24° 63° (ENE) 23:55:49 437.305
DANDE 22 May 23:54:19 00:01:36 31° 56° (ENE) 00:08:13 436.750
HUMSAT D 22 May 23:57:39 00:01:14 24° 268° (W) 00:04:46 437.325/437.525
POLYITAN 1 22 May 23:58:32 00:02:19 29° 94° (E) 00:06:07 437.675
QB50P1 22 May 23:59:13 00:03:00 29° 94° (E) 00:06:47 145.935-145.965
UWE-3 23 May 00:02:11 00:03:59 12° 277° (W) 00:05:32 435.000/436.395/437.385
AISAT 23 May 00:03:14 00:07:21 36° 263° (W) 00:11:29 437.250
BUGSAT 1 23 May 00:05:16 00:08:45 24° 92° (E) 00:12:16 437.445
BEESAT 23 May 00:15:33 00:17:04 12° 53° (NE) 00:18:46 436.000
TIGRISAT 23 May 00:17:40 00:22:12 86° 101° (E) 00:26:34 435.000
SWISSCUBE 23 May 00:22:17 00:24:39 14° 55° (NE) 00:27:10 437.505
50 SAT 23 May 00:24:44 00:27:44 19° 269° (W) 00:30:38 437.505
NANOSAT C BR1 23 May 00:32:05 00:36:21 61° 101° (E) 00:40:36 145.865
AIST 2 23 May 00:32:22 00:34:29 13° 346° (NNW) 00:36:35 435.215
BEESAT 3 23 May 00:32:30 00:33:23 11° 0° (N) 00:34:15 437.485
UNISAT 6 23 May 00:36:06 00:40:33 62° 288° (WNW) 00:44:52 437.425
QB50P2 23 May 00:36:32 00:40:52 70° 102° (ESE) 00:45:09 145.880/145.840
SPROUT 23 May 00:41:52 00:46:12 88° 261° (W) 00:50:35 437.525
POPSAT HIP 1 23 May 00:50:03 00:54:23 89° 289° (WNW) 00:58:41 437.405
Cosmos 2504 23 May 00:53:56 00:56:50 12° 287° (WNW) 00:59:15 435.465 / 435.565
ESTCUBE 1 23 May 00:55:12 00:58:38 21° 269° (W) 01:02:00 437.505/2401.250
DUCHIFAT 1 23 May 00:55:55 01:00:14 80° 286° (WNW) 01:04:30 145.980
CUSAT 1 23 May 00:57:54 01:06:00 77° 75° (ENE) 01:12:36 437.405
GONETS M04 23 May 01:03:34 01:12:21 63° 74° (ENE) 01:21:02
O/OREOS (USA 219) 23 May 01:05:43 01:08:31 16° 41° (NE) 01:11:26 437.305
BEESAT 2 23 May 01:15:03 01:16:26 11° 9° (N) 01:17:52 435.950
ANTELSAT 23 May 01:19:48 01:23:34 26° 297° (WNW) 01:27:12 437.575/2403.000
PCSat 23 May 01:23:03 01:24:54 12° 104° (ESE) 01:27:02 145.827
TISAT 1 23 May 01:23:51 01:27:55 44° 262° (W) 01:32:02 437.305
CUBEBUG 1 23 May 01:24:10 01:26:13 13° 274° (W) 01:28:06 437.445
KKS-1 23 May 01:34:18 01:35:56 12° 55° (NE) 01:37:45 437.445
POLYITAN 1 23 May 01:34:20 01:38:17 34° 293° (WNW) 01:42:09 437.675
QB50P1 23 May 01:34:59 01:38:54 34° 293° (WNW) 01:42:46 145.935-145.965
DANDE 23 May 01:37:22 01:45:54 79° 261° (W) 01:53:02 436.750
ITUPSAT 1 23 May 01:38:46 01:43:22 51° 69° (ENE) 01:48:01 437.325
BUGSAT 1 23 May 01:40:20 01:44:23 41° 291° (WNW) 01:48:24 437.445
ISS 23 May 01:44:08 01:46:07 15° 140° (SE) 01:48:10 145.825
Cosmos 2499 23 May 01:47:04 01:52:36 24° 58° (ENE) 01:58:13 435.465 / 435.565
BEESAT 23 May 01:49:23 01:54:05 64° 72° (ENE) 01:58:50 436.000
TIGRISAT 23 May 01:55:49 01:58:20 15° 303° (WNW) 02:00:42 435.000
SWISSCUBE 23 May 01:57:04 02:01:49 80° 73° (ENE) 02:06:37 437.505
Oscar 19 23 May 02:03:59 02:08:08 24° 91° (E) 02:12:22 437.125/150
NANOSAT C BR1 23 May 02:08:47 02:11:49 19° 299° (WNW) 02:14:44 145.865
BEESAT 3 23 May 02:10:13 02:12:57 17° 24° (NNE) 02:15:43 437.485
AIST 2 23 May 02:12:59 02:14:48 12° 10° (N) 02:16:39 435.215
QB50P2 23 May 02:13:30 02:16:18 17° 300° (WNW) 02:18:59 145.880/145.840
UNISAT 6 23 May 02:15:45 02:16:29 10° 307° (NW) 02:17:00 437.425
Gurwin Techsat 1B 23 May 02:21:01 02:21:58 11° 81° (E) 02:23:15 435.225
SPROUT 23 May 02:21:40 02:23:03 11° 276° (W) 02:24:14 437.525
POPSAT HIP 1 23 May 02:27:29 02:29:40 13° 303° (WNW) 02:31:41 437.405
DUCHIFAT 1 23 May 02:33:36 02:35:23 12° 304° (NW) 02:37:01 145.980
CUSAT 1 23 May 02:41:30 02:47:50 27° 279° (W) 02:53:10 437.405
O/OREOS (USA 219) 23 May 02:44:11 02:48:42 86° 62° (ENE) 02:53:10 437.305
STARS 23 May 02:47:06 02:51:01 32° 66° (ENE) 02:55:02 437.465
BEESAT 2 23 May 02:52:31 02:55:55 24° 32° (NNE) 02:59:20 435.950
GONETS M04 23 May 03:00:59 03:08:48 36° 276° (W) 03:16:23
PCSat 23 May 03:02:04 03:07:26 68° 122° (ESE) 03:12:52 145.827
KKS-1 23 May 03:07:22 03:11:50 73° 73° (ENE) 03:16:21 437.445
ITUPSAT 1 23 May 03:17:44 03:21:36 23° 269° (W) 03:25:22 437.325
ISS 23 May 03:18:51 03:22:05 64° 158° (SSE) 03:25:20 145.825
DANDE 23 May 03:22:04 03:27:49 20° 283° (WNW) 03:32:46 436.750
BEESAT 23 May 03:29:02 03:32:26 19° 271° (W) 03:35:42 436.000
AO-7 23 May 03:30:04 03:32:05 11° 77° (ENE) 03:34:46 29.400- 29.500
SWISSCUBE 23 May 03:37:35 03:40:22 15° 273° (W) 03:42:58 437.505
Cosmos 2499 23 May 03:39:35 03:46:45 80° 263° (W) 03:53:49 435.465 / 435.565
Oscar 19 23 May 03:42:48 03:47:53 55° 291° (WNW) 03:52:54 437.125/150
ITAMSAT 1 23 May 03:46:34 03:51:43 57° 101° (E) 03:56:52 435.822/435.867
BEESAT 3 23 May 03:47:39 03:51:44 62° 46° (NE) 03:55:46 437.485
HORYU 2 23 May 03:48:31 03:49:17 10° 84° (E) 03:50:19 437.375
AIST 2 23 May 03:51:05 03:54:45 27° 33° (NNE) 03:58:24 435.215
Gurwin Techsat 1B 23 May 03:57:48 04:03:07 67° 102° (ESE) 04:08:25 435.225
MOZHAYETS 4 23 May 04:04:28 04:08:18 27° 64° (ENE) 04:12:12
JAS-2 23 May 04:23:03 04:27:07 23° 90° (E) 04:31:15 435.910
STARS 23 May 04:23:24 04:27:27 34° 264° (W) 04:31:32 437.465
O/OREOS (USA 219) 23 May 04:25:26 04:27:30 13° 261° (W) 04:29:23 437.305
BEESAT 2 23 May 04:30:17 04:34:25 70° 233° (SW) 04:38:28 435.950
KKS-1 23 May 04:46:22 04:49:04 15° 273° (W) 04:51:37 437.445
PCSat 23 May 04:46:30 04:51:19 31° 323° (NW) 04:56:07 145.827
Cosmos 2491 23 May 04:51:54 04:55:43 13° 40° (NE) 04:59:57 435.465 / 435.565
ISS 23 May 04:55:17 04:58:32 65° 357° (N) 05:01:49 145.825
SO-50 23 May 05:16:26 05:21:00 50° 123° (ESE) 05:25:44 436.795
AO-7 23 May 05:19:05 05:27:14 54° 101° (E) 05:35:24 29.400- 29.500
HORYU 2 23 May 05:22:17 05:26:46 82° 104° (ESE) 05:31:12 437.375
Oscar 19 23 May 05:24:36 05:26:14 11° 310° (NW) 05:27:39 437.125/150
BEESAT 3 23 May 05:26:21 05:29:22 19° 245° (WSW) 05:32:14 437.485
ITAMSAT 1 23 May 05:26:38 05:30:56 26° 300° (WNW) 05:35:09 435.822/435.867
AIST 2 23 May 05:29:27 05:33:40 61° 235° (SW) 05:37:47 435.215
CUBESAT XI-V 23 May 05:31:17 05:34:35 20° 61° (ENE) 05:38:01 437.345
Cosmos 2499 23 May 05:34:36 05:38:47 16° 283° (WNW) 05:42:37 435.465 / 435.565
Gurwin Techsat 1B 23 May 05:38:31 05:42:42 23° 301° (WNW) 05:46:45 435.225
PRISM 23 May 05:38:45 05:40:06 12° 56° (NE) 05:41:35 437.425
MOZHAYETS 4 23 May 05:41:02 05:45:24 42° 263° (W) 05:49:45
PHONESAT 2.4 23 May 06:05:45 06:06:11 10° 160° (SSE) 06:06:40 2401.200-2431.200
JAS-2 23 May 06:07:36 06:12:46 55° 291° (WNW) 06:17:49 435.910
M-CUBED/EXP-1 PRIME 23 May 06:09:48 06:13:00 22° 58° (ENE) 06:16:05 437.505
AUBIESAT-1 23 May 06:22:02 06:25:24 25° 60° (ENE) 06:28:37 437.475
VERMONT LUNAR 23 May 06:27:46 06:29:40 15° 177° (S) 06:31:35 437.305
ISS 23 May 06:31:48 06:35:05 85° 198° (SSW) 06:38:22 145.825
PCSat 23 May 06:33:33 06:36:31 14° 348° (NNW) 06:39:26 145.827
STRAND 1 23 May 06:39:29 06:44:13 41° 66° (ENE) 06:49:01 437.568
Cosmos 2491 23 May 06:47:08 06:55:37 47° 68° (ENE) 07:04:04 435.465 / 435.565
SO-50 23 May 06:57:16 07:01:44 36° 324° (NW) 07:06:18 436.795
HORYU 2 23 May 07:00:12 07:02:53 16° 303° (WNW) 07:05:25 437.375
CUTE-I 23 May 07:06:14 07:10:56 31° 94° (E) 07:15:42 437.470
CUBESAT XI-V 23 May 07:07:06 07:11:40 62° 259° (W) 07:16:16 437.345
PRISM 23 May 07:10:49 07:14:55 82° 74° (ENE) 07:19:02 437.425
AO-7 23 May 07:12:08 07:20:01 47° 303° (WNW) 07:27:49 29.400- 29.500
Cubesat XI-IV 23 May 07:25:16 07:30:22 44° 98° (E) 07:35:31 437.490
PHONESAT 2.4 23 May 07:41:12 07:43:29 17° 177° (S) 07:45:47 2401.200-2431.200
M-CUBED/EXP-1 PRIME 23 May 07:43:28 07:47:40 49° 254° (WSW) 07:51:32 437.505
YUBILEINY 23 May 07:46:52 07:54:32 37° 84° (E) 08:02:19 435.215
JAS-2 23 May 07:55:39 07:56:49 11° 312° (NW) 07:57:44 435.910
AUBIESAT-1 23 May 07:56:00 08:00:03 41° 255° (WSW) 08:03:48 437.475
VERMONT LUNAR 23 May 08:04:49 08:06:08 12° 193° (SSW) 08:07:26 437.305
ISS 23 May 08:08:32 08:11:12 23° 216° (SW) 08:13:52 145.825
STRAND 1 23 May 08:18:57 08:23:32 33° 265° (W) 08:28:07 437.568
PCSat 23 May 08:19:06 08:22:13 15° 14° (NNE) 08:25:23 145.827
HO-68 23 May 08:35:32 08:39:25 16° 83° (E) 08:43:39 435.675
AIST 1 23 May 08:38:24 08:42:45 62° 77° (ENE) 08:47:05
SO-50 23 May 08:40:27 08:43:38 17° 348° (NNW) 08:46:49 436.795
Cosmos 2491 23 May 08:44:13 08:52:38 49° 271° (W) 09:00:55 435.465 / 435.565
CUTE-I 23 May 08:46:06 08:51:13 46° 293° (WNW) 08:56:19 437.470
PRISM 23 May 08:49:28 08:51:01 12° 274° (W) 08:52:22 437.425
